TimeCST,TemperatureF,Dew PointF,Humidity,Sea Level PressureIn,VisibilityMPH,Wind Direction,Wind SpeedMPH,Gust SpeedMPH,PrecipitationIn,Events,Conditions,WindDirDegrees,DateUTC
12:55 AM,40.5,25.3,55,30.08,10.0,SW,13.8,-,N/A,,Clear,220,2012-12-23 06:55:00
1:55 AM,40.5,25.2,54,30.08,10.0,SW,12.7,-,N/A,,Clear,220,2012-12-23 07:55:00
2:55 AM,41.4,25.0,52,30.07,10.0,SSW,9.2,-,N/A,,Clear,210,2012-12-23 08:55:00
3:55 AM,41.5,25.3,53,30.06,10.0,SSW,8.1,-,N/A,,Scattered Clouds,200,2012-12-23 09:55:00
4:55 AM,42.1,25.0,51,30.04,10.0,South,9.2,-,N/A,,Clear,190,2012-12-23 10:55:00
5:55 AM,43.2,25.2,49,30.04,10.0,SSW,10.4,-,N/A,,Clear,200,2012-12-23 11:55:00
6:55 AM,42.8,26.4,52,30.04,10.0,SSW,9.2,-,N/A,,Clear,210,2012-12-23 12:55:00
7:55 AM,44.8,28.6,53,30.04,10.0,SSW,9.2,-,N/A,,Scattered Clouds,210,2012-12-23 13:55:00
8:55 AM,49.5,31.3,50,30.04,10.0,SSW,10.4,-,N/A,,Clear,210,2012-12-23 14:55:00
9:55 AM,52.7,36.0,53,30.04,10.0,WSW,13.8,-,N/A,,Scattered Clouds,240,2012-12-23 15:55:00
10:55 AM,53.6,38.1,56,30.03,10.0,SW,12.7,-,N/A,,Overcast,230,2012-12-23 16:55:00
11:55 AM,55.6,39.2,54,29.99,10.0,SW,13.8,-,N/A,,Partly Cloudy,220,2012-12-23 17:55:00
12:55 PM,55.2,39.2,55,29.96,10.0,SW,10.4,-,N/A,,Mostly Cloudy,220,2012-12-23 18:55:00
1:55 PM,57.7,40.3,52,29.94,10.0,SSW,8.1,-,N/A,,Scattered Clouds,210,2012-12-23 19:55:00
2:55 PM,55.6,40.3,56,29.94,10.0,South,8.1,-,N/A,,Partly Cloudy,170,2012-12-23 20:55:00
3:55 PM,54.7,42.1,62,29.93,10.0,South,6.9,-,N/A,,Mostly Cloudy,180,2012-12-23 21:55:00
4:55 PM,51.6,44.6,77,29.93,10.0,South,9.2,-,N/A,,Mostly Cloudy,170,2012-12-23 22:55:00
5:35 PM,50.0,48.2,94,29.94,10.0,South,9.2,-,N/A,,Overcast,180,2012-12-23 23:35:00
5:42 PM,50.0,48.2,94,29.93,10.0,South,10.4,-,N/A,,Overcast,180,2012-12-23 23:42:00
5:55 PM,49.6,48.4,95,29.94,10.0,South,11.5,-,N/A,,Overcast,190,2012-12-23 23:55:00
6:55 PM,49.3,48.7,98,29.94,10.0,South,6.9,-,N/A,,Overcast,180,2012-12-24 00:55:00
7:01 PM,50.0,48.2,94,29.94,10.0,South,6.9,-,N/A,,Overcast,180,2012-12-24 01:01:00
7:15 PM,48.2,48.2,100,29.94,10.0,South,9.2,-,N/A,,Overcast,180,2012-12-24 01:15:00
7:26 PM,48.2,48.2,100,29.94,10.0,South,5.8,-,N/A,,Overcast,180,2012-12-24 01:26:00
7:40 PM,48.2,48.2,100,29.93,10.0,Variable,6.9,-,N/A,,Overcast,0,2012-12-24 01:40:00
7:55 PM,48.4,48.4,100,29.93,9.0,SSE,5.8,-,N/A,,Overcast,160,2012-12-24 01:55:00
8:55 PM,47.3,47.3,100,29.92,5.0,SSE,6.9,-,N/A,,Overcast,160,2012-12-24 02:55:00
9:09 PM,48.2,48.2,100,29.91,4.0,SSE,6.9,-,N/A,,Overcast,160,2012-12-24 03:09:00
9:55 PM,47.3,47.3,100,29.90,4.0,SSE,6.9,-,N/A,,Overcast,150,2012-12-24 03:55:00
10:51 PM,48.2,48.2,100,29.88,3.0,SE,4.6,-,N/A,,Light Drizzle,140,2012-12-24 04:51:00
10:55 PM,47.7,47.7,100,29.88,3.0,SE,5.8,-,0.00,,Light Drizzle,140,2012-12-24 04:55:00
11:06 PM,48.2,48.2,100,29.88,4.0,SE,3.5,-,N/A,,Overcast,140,2012-12-24 05:06:00
11:48 PM,48.2,48.2,100,29.86,3.0,SE,4.6,-,N/A,,Light Drizzle,140,2012-12-24 05:48:00
11:55 PM,47.7,47.7,100,29.86,3.0,SSE,4.6,-,0.00,,Light Drizzle,150,2012-12-24 05:55:00
11:57 PM,48.2,48.2,100,29.86,3.0,SE,4.6,-,N/A,,Overcast,140,2012-12-24 05:57:00